| time (UTC) | temp F | wind direction | speed MPH | gust MPH | rain 1hr in | rain 24hr in | rain mn in | humidity % | barometer mb |
| 20260906093522 | 67 | 218 | 1.0 | 4.0 | 0.00 | 0.00 | 0.00 | 92 | 1017.2 |
| 20260906093511 | 68 | 218 | 1.0 | 0.0 | 0.00 | 0.00 | 0.00 | 91 | 1016.6 |
| 20260906093048 | 67 | 0 | 0.0 | 0.0 | 0.00 | 0.00 | 0.00 | 91 | 1017.2 |
| 20260906093011 | 68 | 203 | 0.0 | 0.0 | 0.00 | 0.00 | 0.00 | 91 | 1016.7 |
| 20260906092523 | 67 | 0 | 0.0 | 0.0 | 0.00 | 0.00 | 0.00 | 92 | 1017.2 |
| 20260906092511 | 68 | 203 | 0.0 | 0.0 | 0.00 | 0.00 | 0.00 | 91 | 1016.6 |
| 20260906092024 | 67 | 0 | 0.0 | 0.0 | 0.00 | 0.00 | 0.00 | 91 | 1017.2 |
| 20260906091546 | 67 | 0 | 0.0 | 2.0 | 0.00 | 0.00 | 0.00 | 91 | 1017.2 |
| 20260906091511 | 68 | 203 | 0.0 | 0.0 | 0.00 | 0.00 | 0.00 | 91 | 1016.7 |
| 20260906091023 | 67 | 0 | 0.0 | 2.0 | 0.00 | 0.00 | 0.00 | 91 | 1017.3 |
| 20260906091011 | 68 | 203 | 0.0 | 0.0 | 0.00 | 0.00 | 0.00 | 91 | 1016.7 |
| 20260906090523 | 67 | 0 | 0.0 | 3.0 | 0.00 | 0.00 | 0.00 | 91 | 1017.2 |
| 20260906090511 | 68 | 203 | 1.0 | 0.0 | 0.00 | 0.00 | 0.00 | 91 | 1016.6 |
| 20260906090048 | 67 | 0 | 0.0 | 3.0 | 0.00 | 0.00 | 0.00 | 91 | 1017.2 |
| 20260906090011 | 68 | 203 | 0.0 | 0.0 | 0.00 | 0.00 | 0.00 | 91 | 1016.6 |
| 20260906085519 | 67 | 203 | 1.0 | 3.0 | 0.00 | 0.00 | 0.00 | 91 | 1017.2 |
| 20260906085511 | 68 | 203 | 2.0 | 0.0 | 0.00 | 0.00 | 0.00 | 90 | 1016.6 |
| 20260906085023 | 67 | 203 | 1.0 | 2.0 | 0.00 | 0.00 | 0.00 | 91 | 1017.2 |
| 20260906085011 | 68 | 203 | 1.0 | 0.0 | 0.00 | 0.00 | 0.00 | 90 | 1016.7 |
| 20260906084548 | 67 | 203 | 1.0 | 2.0 | 0.00 | 0.00 | 0.00 | 91 | 1017.3 |
| 20260906084511 | 68 | 203 | 1.0 | 0.0 | 0.00 | 0.00 | 0.00 | 90 | 1016.7 |
| 20260906084020 | 67 | 203 | 0.0 | 2.0 | 0.00 | 0.00 | 0.00 | 91 | 1017.2 |
| 20260906084011 | 68 | 203 | 2.0 | 0.0 | 0.00 | 0.00 | 0.00 | 91 | 1016.6 |
| 20260906083521 | 67 | 0 | 0.0 | 1.0 | 0.00 | 0.00 | 0.00 | 91 | 1017.2 |
| 20260906083511 | 68 | 203 | 0.0 | 0.0 | 0.00 | 0.00 | 0.00 | 90 | 1016.6 |
| 20260906083039 | 67 | 0 | 0.0 | 0.0 | 0.00 | 0.00 | 0.00 | 91 | 1017.1 |
| 20260906083011 | 68 | 203 | 0.0 | 0.0 | 0.00 | 0.00 | 0.00 | 90 | 1016.5 |
| 20260906082518 | 68 | 0 | 0.0 | 0.0 | 0.00 | 0.00 | 0.00 | 91 | 1017.2 |
| 20260906082511 | 68 | 203 | 0.0 | 0.0 | 0.00 | 0.00 | 0.00 | 90 | 1016.6 |
| 20260906082024 | 68 | 0 | 0.0 | 2.0 | 0.00 | 0.00 | 0.00 | 91 | 1017.2 |
| 20260906082011 | 68 | 203 | 0.0 | 0.0 | 0.00 | 0.00 | 0.00 | 90 | 1016.5 |
| 20260906081546 | 68 | 0 | 0.0 | 2.0 | 0.00 | 0.00 | 0.00 | 91 | 1017.3 |
| 20260906081511 | 68 | 203 | 0.0 | 0.0 | 0.00 | 0.00 | 0.00 | 90 | 1016.7 |
| 20260906081024 | 68 | 0 | 0.0 | 2.0 | 0.00 | 0.00 | 0.00 | 90 | 1017.3 |
| 20260906081011 | 68 | 203 | 0.0 | 0.0 | 0.00 | 0.00 | 0.00 | 90 | 1016.7 |
| 20260906080524 | 68 | 0 | 1.0 | 3.0 | 0.00 | 0.00 | 0.00 | 90 | 1017.3 |
| 20260906080511 | 68 | 203 | 1.0 | 0.0 | 0.00 | 0.00 | 0.00 | 90 | 1016.7 |
| 20260906080044 | 68 | 203 | 1.0 | 3.0 | 0.00 | 0.00 | 0.00 | 91 | 1017.3 |
| 20260906080011 | 68 | 203 | 1.0 | 0.0 | 0.00 | 0.00 | 0.00 | 90 | 1016.7 |
| 20260906075525 | 68 | 203 | 0.0 | 5.0 | 0.00 | 0.00 | 0.00 | 90 | 1017.4 |
| 20260906075511 | 68 | 203 | 1.0 | 0.0 | 0.00 | 0.00 | 0.00 | 90 | 1016.7 |
| 20260906075021 | 68 | 0 | 1.0 | 5.0 | 0.00 | 0.00 | 0.00 | 90 | 1017.3 |
| 20260906074539 | 68 | 194 | 1.0 | 5.0 | 0.00 | 0.00 | 0.00 | 90 | 1017.3 |
| 20260906074511 | 69 | 194 | 1.0 | 0.0 | 0.00 | 0.00 | 0.00 | 89 | 1016.6 |
| 20260906074024 | 68 | 0 | 0.0 | 0.0 | 0.00 | 0.00 | 0.00 | 90 | 1017.2 |
| 20260906074011 | 69 | 172 | 0.0 | 0.0 | 0.00 | 0.00 | 0.00 | 89 | 1016.6 |
| 20260906073522 | 69 | 0 | 0.0 | 0.0 | 0.00 | 0.00 | 0.00 | 90 | 1017.3 |
| 20260906073511 | 69 | 91 | 0.0 | 0.0 | 0.00 | 0.00 | 0.00 | 90 | 1016.7 |
| 20260906073042 | 69 | 0 | 0.0 | 2.0 | 0.00 | 0.00 | 0.00 | 90 | 1017.4 |
| 20260906073011 | 69 | 91 | 0.0 | 0.0 | 0.00 | 0.00 | 0.00 | 90 | 1016.8 |
| 20260906072520 | 69 | 0 | 0.0 | 2.0 | 0.00 | 0.00 | 0.00 | 91 | 1017.4 |
| 20260906072511 | 69 | 91 | 0.0 | 0.0 | 0.00 | 0.00 | 0.00 | 90 | 1016.8 |
| 20260906072020 | 69 | 0 | 0.0 | 1.0 | 0.00 | 0.00 | 0.00 | 91 | 1017.4 |
| 20260906072011 | 69 | 91 | 0.0 | 0.0 | 0.00 | 0.00 | 0.00 | 90 | 1016.8 |
| 20260906071555 | 69 | 0 | 0.0 | 1.0 | 0.00 | 0.00 | 0.00 | 91 | 1017.4 |
| 20260906071511 | 69 | 91 | 0.0 | 0.0 | 0.00 | 0.00 | 0.00 | 90 | 1016.8 |
| 20260906071024 | 69 | 0 | 0.0 | 3.0 | 0.00 | 0.00 | 0.00 | 91 | 1017.4 |
| 20260906071011 | 69 | 91 | 0.0 | 0.0 | 0.00 | 0.00 | 0.00 | 90 | 1016.7 |
| 20260906070524 | 69 | 0 | 0.0 | 3.0 | 0.00 | 0.00 | 0.00 | 91 | 1017.3 |
| 20260906070511 | 69 | 91 | 0.0 | 0.0 | 0.00 | 0.00 | 0.00 | 90 | 1016.7 |
| 20260906070044 | 69 | 0 | 0.0 | 0.0 | 0.00 | 0.00 | 0.00 | 91 | 1017.4 |
| 20260906070011 | 69 | 93 | 0.0 | 0.0 | 0.00 | 0.00 | 0.00 | 90 | 1016.7 |
| 20260906065524 | 69 | 0 | 0.0 | 0.0 | 0.00 | 0.00 | 0.00 | 90 | 1017.4 |
| 20260906065511 | 69 | 93 | 0.0 | 0.0 | 0.00 | 0.00 | 0.00 | 90 | 1016.7 |
| 20260906065024 | 69 | 0 | 0.0 | 0.0 | 0.00 | 0.00 | 0.00 | 90 | 1017.5 |
| 20260906065011 | 69 | 93 | 0.0 | 0.0 | 0.00 | 0.00 | 0.00 | 90 | 1016.9 |
| 20260906064539 | 69 | 0 | 0.0 | 4.0 | 0.00 | 0.00 | 0.00 | 90 | 1017.6 |
| 20260906064511 | 69 | 93 | 0.0 | 0.0 | 0.00 | 0.00 | 0.00 | 90 | 1017.0 |
| 20260906064021 | 69 | 0 | 0.0 | 4.0 | 0.00 | 0.00 | 0.00 | 90 | 1017.6 |
| 20260906064011 | 69 | 93 | 0.0 | 0.0 | 0.00 | 0.00 | 0.00 | 89 | 1017.0 |
| 20260906063522 | 69 | 0 | 0.0 | 0.0 | 0.00 | 0.00 | 0.00 | 89 | 1017.6 |
| 20260906063511 | 69 | 197 | 0.0 | 0.0 | 0.00 | 0.00 | 0.00 | 89 | 1017.0 |
| 20260906063042 | 69 | 0 | 0.0 | 0.0 | 0.00 | 0.00 | 0.00 | 89 | 1017.7 |
| 20260906062520 | 69 | 0 | 0.0 | 0.0 | 0.00 | 0.00 | 0.00 | 89 | 1017.7 |
| 20260906062511 | 70 | 197 | 0.0 | 0.0 | 0.00 | 0.00 | 0.00 | 89 | 1017.1 |
| 20260906062020 | 69 | 0 | 0.0 | 0.0 | 0.00 | 0.00 | 0.00 | 89 | 1017.8 |
| 20260906062011 | 70 | 197 | 0.0 | 0.0 | 0.00 | 0.00 | 0.00 | 89 | 1017.2 |
| 20260906061539 | 69 | 0 | 0.0 | 0.0 | 0.00 | 0.00 | 0.00 | 89 | 1017.8 |
| 20260906061511 | 70 | 197 | 0.0 | 0.0 | 0.00 | 0.00 | 0.00 | 89 | 1017.2 |
| 20260906061023 | 69 | 0 | 0.0 | 0.0 | 0.00 | 0.00 | 0.00 | 89 | 1017.8 |
| 20260906061011 | 70 | 197 | 0.0 | 0.0 | 0.00 | 0.00 | 0.00 | 89 | 1017.1 |
| 20260906060523 | 70 | 0 | 0.0 | 0.0 | 0.00 | 0.00 | 0.00 | 89 | 1017.7 |
| 20260906060511 | 70 | 197 | 0.0 | 0.0 | 0.00 | 0.00 | 0.00 | 89 | 1017.1 |
| 20260906060045 | 70 | 0 | 0.0 | 0.0 | 0.00 | 0.00 | 0.00 | 89 | 1017.7 |
| 20260906060011 | 70 | 197 | 0.0 | 0.0 | 0.00 | 0.00 | 0.00 | 89 | 1017.0 |
| 20260906055525 | 70 | 0 | 0.0 | 0.0 | 0.00 | 0.00 | 0.00 | 89 | 1017.8 |
| 20260906055511 | 70 | 197 | 0.0 | 0.0 | 0.00 | 0.00 | 0.00 | 88 | 1017.0 |
| 20260906055020 | 70 | 0 | 0.0 | 0.0 | 0.00 | 0.00 | 0.00 | 89 | 1017.7 |
| 20260906055011 | 70 | 197 | 0.0 | 0.0 | 0.00 | 0.00 | 0.00 | 88 | 1017.1 |
| 20260906054541 | 70 | 0 | 0.0 | 0.0 | 0.00 | 0.00 | 0.00 | 89 | 1017.8 |
| 20260906054512 | 70 | 197 | 0.0 | 0.0 | 0.00 | 0.00 | 0.00 | 88 | 1017.1 |
| 20260906054018 | 70 | 0 | 0.0 | 0.0 | 0.00 | 0.00 | 0.00 | 89 | 1017.7 |
| 20260906053520 | 70 | 0 | 0.0 | 0.0 | 0.00 | 0.00 | 0.00 | 89 | 1017.7 |
| 20260906053511 | 71 | 197 | 0.0 | 0.0 | 0.00 | 0.00 | 0.00 | 88 | 1017.1 |
| 20260906053042 | 70 | 0 | 0.0 | 0.0 | 0.00 | 0.00 | 0.00 | 88 | 1017.7 |
| 20260906053011 | 71 | 197 | 0.0 | 0.0 | 0.00 | 0.00 | 0.00 | 88 | 1017.1 |
| 20260906052521 | 70 | 0 | 0.0 | 0.0 | 0.00 | 0.00 | 0.00 | 88 | 1017.7 |
| 20260906052511 | 71 | 197 | 0.0 | 0.0 | 0.00 | 0.00 | 0.00 | 88 | 1017.1 |
| 20260906052023 | 70 | 0 | 0.0 | 0.0 | 0.00 | 0.00 | 0.00 | 88 | 1017.8 |
| 20260906052011 | 71 | 197 | 0.0 | 0.0 | 0.00 | 0.00 | 0.00 | 88 | 1017.1 |
| 20260906051538 | 70 | 0 | 0.0 | 0.0 | 0.00 | 0.00 | 0.00 | 88 | 1017.8 |
| 20260906051020 | 71 | 0 | 0.0 | 0.0 | 0.00 | 0.00 | 0.00 | 88 | 1017.7 |
| 20260906051011 | 71 | 197 | 0.0 | 0.0 | 0.00 | 0.00 | 0.00 | 88 | 1017.0 |
| 20260906050526 | 71 | 0 | 0.0 | 0.0 | 0.00 | 0.00 | 0.00 | 88 | 1017.7 |
| 20260906050511 | 71 | 197 | 0.0 | 0.0 | 0.00 | 0.00 | 0.00 | 88 | 1017.0 |
| 20260906050044 | 71 | 0 | 0.0 | 0.0 | 0.00 | 0.00 | 0.00 | 88 | 1017.7 |
| 20260906050011 | 71 | 197 | 0.0 | 0.0 | 0.00 | 0.00 | 0.00 | 88 | 1017.0 |
| 20260906045525 | 71 | 0 | 0.0 | 0.0 | 0.00 | 0.00 | 0.00 | 88 | 1017.8 |
| 20260906045511 | 71 | 197 | 0.0 | 0.0 | 0.00 | 0.00 | 0.00 | 88 | 1017.1 |
| 20260906045022 | 71 | 0 | 0.0 | 0.0 | 0.00 | 0.00 | 0.00 | 88 | 1017.8 |
| 20260906045011 | 71 | 197 | 0.0 | 0.0 | 0.00 | 0.00 | 0.00 | 88 | 1017.1 |
| 20260906044543 | 71 | 0 | 0.0 | 0.0 | 0.00 | 0.00 | 0.00 | 88 | 1017.9 |
| 20260906044512 | 71 | 197 | 0.0 | 0.0 | 0.00 | 0.00 | 0.00 | 87 | 1017.1 |
| 20260906044020 | 71 | 0 | 0.0 | 0.0 | 0.00 | 0.00 | 0.00 | 88 | 1017.8 |
| 20260906043519 | 71 | 0 | 0.0 | 0.0 | 0.00 | 0.00 | 0.00 | 88 | 1017.9 |
| 20260906043511 | 71 | 196 | 0.0 | 0.0 | 0.00 | 0.00 | 0.00 | 87 | 1017.1 |
| 20260906043040 | 71 | 0 | 0.0 | 0.0 | 0.00 | 0.00 | 0.00 | 88 | 1017.9 |
| 20260906043011 | 71 | 196 | 0.0 | 0.0 | 0.00 | 0.00 | 0.00 | 87 | 1017.1 |
| 20260906042523 | 71 | 0 | 0.0 | 0.0 | 0.00 | 0.00 | 0.00 | 87 | 1017.9 |
| 20260906042511 | 71 | 196 | 0.0 | 0.0 | 0.00 | 0.00 | 0.00 | 87 | 1017.1 |
| 20260906042024 | 71 | 0 | 0.0 | 0.0 | 0.00 | 0.00 | 0.00 | 87 | 1017.9 |
| 20260906042011 | 71 | 196 | 0.0 | 0.0 | 0.00 | 0.00 | 0.00 | 87 | 1017.1 |
| 20260906041552 | 71 | 0 | 0.0 | 0.0 | 0.00 | 0.00 | 0.00 | 87 | 1018.0 |
| 20260906041027 | 71 | 0 | 0.0 | 0.0 | 0.00 | 0.00 | 0.00 | 87 | 1017.9 |
| 20260906041011 | 72 | 195 | 0.0 | 0.0 | 0.00 | 0.00 | 0.00 | 86 | 1017.1 |
| 20260906040524 | 71 | 0 | 0.0 | 0.0 | 0.00 | 0.00 | 0.00 | 87 | 1017.9 |
| 20260906040511 | 72 | 195 | 0.0 | 0.0 | 0.00 | 0.00 | 0.00 | 86 | 1017.1 |
| 20260906040045 | 71 | 0 | 0.0 | 0.0 | 0.00 | 0.00 | 0.00 | 87 | 1018.0 |
| 20260906040011 | 72 | 195 | 0.0 | 0.0 | 0.00 | 0.00 | 0.00 | 86 | 1017.1 |
| 20260906035518 | 71 | 0 | 0.0 | 0.0 | 0.00 | 0.00 | 0.00 | 86 | 1017.9 |
| 20260906035511 | 72 | 195 | 0.0 | 0.0 | 0.00 | 0.00 | 0.00 | 86 | 1017.2 |
| 20260906035019 | 71 | 0 | 0.0 | 0.0 | 0.00 | 0.00 | 0.00 | 86 | 1018.0 |
| 20260906035011 | 72 | 195 | 0.0 | 0.0 | 0.00 | 0.00 | 0.00 | 86 | 1017.2 |
| 20260906034546 | 72 | 0 | 0.0 | 0.0 | 0.00 | 0.00 | 0.00 | 86 | 1018.0 |
| 20260906034511 | 72 | 195 | 0.0 | 0.0 | 0.00 | 0.00 | 0.00 | 85 | 1017.1 |
| 20260906034025 | 72 | 0 | 0.0 | 0.0 | 0.00 | 0.00 | 0.00 | 86 | 1018.0 |
| 20260906034011 | 72 | 195 | 0.0 | 0.0 | 0.00 | 0.00 | 0.00 | 86 | 1017.2 |
| 20260906033524 | 72 | 0 | 0.0 | 0.0 | 0.00 | 0.00 | 0.00 | 86 | 1018.0 |
| 20260906033512 | 72 | 195 | 0.0 | 0.0 | 0.00 | 0.00 | 0.00 | 85 | 1017.1 |
| 20260906033038 | 72 | 0 | 0.0 | 0.0 | 0.00 | 0.00 | 0.00 | 85 | 1018.1 |
| 20260906033011 | 72 | 195 | 0.0 | 0.0 | 0.00 | 0.00 | 0.00 | 85 | 1017.2 |
| 20260906032520 | 72 | 0 | 0.0 | 0.0 | 0.00 | 0.00 | 0.00 | 85 | 1018.1 |
| 20260906032511 | 72 | 195 | 0.0 | 0.0 | 0.00 | 0.00 | 0.00 | 84 | 1017.3 |
| 20260906032059 | 72 | 0 | 0.0 | 0.0 | 0.00 | 0.00 | 0.00 | 85 | 1018.2 |
| 20260906032011 | 72 | 195 | 0.0 | 0.0 | 0.00 | 0.00 | 0.00 | 84 | 1017.4 |
| 20260906031543 | 72 | 0 | 0.0 | 0.0 | 0.00 | 0.00 | 0.00 | 85 | 1018.2 |
| 20260906031023 | 72 | 0 | 0.0 | 0.0 | 0.00 | 0.00 | 0.00 | 85 | 1018.2 |
| 20260906030519 | 72 | 0 | 0.0 | 0.0 | 0.00 | 0.00 | 0.00 | 84 | 1018.1 |
| 20260906030511 | 73 | 195 | 0.0 | 0.0 | 0.00 | 0.00 | 0.00 | 84 | 1017.4 |
| 20260906030041 | 72 | 0 | 0.0 | 0.0 | 0.00 | 0.00 | 0.00 | 84 | 1018.2 |
| 20260906030011 | 73 | 195 | 0.0 | 0.0 | 0.00 | 0.00 | 0.00 | 84 | 1017.3 |
| 20260906025519 | 72 | 0 | 0.0 | 0.0 | 0.00 | 0.00 | 0.00 | 84 | 1018.0 |
| 20260906025511 | 73 | 195 | 0.0 | 0.0 | 0.00 | 0.00 | 0.00 | 84 | 1017.2 |
| 20260906025025 | 72 | 0 | 0.0 | 0.0 | 0.00 | 0.00 | 0.00 | 84 | 1017.8 |
| 20260906025011 | 73 | 195 | 0.0 | 0.0 | 0.00 | 0.00 | 0.00 | 84 | 1017.0 |
| 20260906024558 | 73 | 0 | 0.0 | 0.0 | 0.00 | 0.00 | 0.00 | 84 | 1017.7 |
| 20260906024511 | 73 | 195 | 0.0 | 0.0 | 0.00 | 0.00 | 0.00 | 83 | 1016.9 |
| 20260906024024 | 73 | 0 | 0.0 | 0.0 | 0.00 | 0.00 | 0.00 | 83 | 1017.8 |
| 20260906023525 | 73 | 0 | 0.0 | 0.0 | 0.00 | 0.00 | 0.00 | 83 | 1017.6 |
| 20260906023511 | 73 | 196 | 0.0 | 0.0 | 0.00 | 0.00 | 0.00 | 82 | 1016.9 |
| 20260906023038 | 73 | 0 | 0.0 | 0.0 | 0.00 | 0.00 | 0.00 | 82 | 1017.5 |
| 20260906023011 | 74 | 196 | 0.0 | 0.0 | 0.00 | 0.00 | 0.00 | 82 | 1016.7 |
| 20260906022521 | 73 | 0 | 0.0 | 0.0 | 0.00 | 0.00 | 0.00 | 82 | 1017.4 |
| 20260906022023 | 74 | 0 | 0.0 | 0.0 | 0.00 | 0.00 | 0.00 | 82 | 1017.2 |
| 20260906022011 | 74 | 196 | 0.0 | 0.0 | 0.00 | 0.00 | 0.00 | 81 | 1016.4 |
| 20260906021541 | 74 | 0 | 0.0 | 0.0 | 0.00 | 0.00 | 0.00 | 81 | 1016.9 |
| 20260906021511 | 74 | 196 | 0.0 | 0.0 | 0.00 | 0.00 | 0.00 | 81 | 1016.2 |
| 20260906021023 | 74 | 0 | 0.0 | 0.0 | 0.00 | 0.00 | 0.00 | 81 | 1016.8 |
| 20260906021011 | 75 | 196 | 0.0 | 0.0 | 0.00 | 0.00 | 0.00 | 80 | 1016.0 |
| 20260906020524 | 74 | 0 | 0.0 | 0.0 | 0.00 | 0.00 | 0.00 | 81 | 1016.7 |
| 20260906020511 | 75 | 196 | 0.0 | 0.0 | 0.00 | 0.00 | 0.00 | 80 | 1015.9 |
| 20260906020047 | 75 | 0 | 0.0 | 0.0 | 0.00 | 0.00 | 0.00 | 80 | 1016.6 |
| 20260906020011 | 75 | 196 | 0.0 | 0.0 | 0.00 | 0.00 | 0.00 | 80 | 1015.9 |
| 20260906015524 | 75 | 0 | 0.0 | 0.0 | 0.00 | 0.00 | 0.00 | 80 | 1016.5 |
| 20260906015511 | 75 | 196 | 0.0 | 0.0 | 0.00 | 0.00 | 0.00 | 79 | 1015.7 |
| 20260906015025 | 75 | 0 | 0.0 | 0.0 | 0.00 | 0.00 | 0.00 | 79 | 1016.3 |
| 20260906015011 | 76 | 196 | 0.0 | 0.0 | 0.00 | 0.00 | 0.00 | 79 | 1015.5 |
| 20260906014552 | 75 | 0 | 0.0 | 0.0 | 0.00 | 0.00 | 0.00 | 79 | 1016.2 |
| 20260906014028 | 76 | 0 | 0.0 | 0.0 | 0.00 | 0.00 | 0.00 | 78 | 1016.1 |
| 20260906014011 | 76 | 196 | 0.0 | 0.0 | 0.00 | 0.00 | 0.00 | 78 | 1015.4 |
| 20260906013519 | 76 | 0 | 0.0 | 0.0 | 0.00 | 0.00 | 0.00 | 78 | 1016.2 |
| 20260906013511 | 76 | 196 | 0.0 | 0.0 | 0.00 | 0.00 | 0.00 | 78 | 1015.4 |
| 20260906013044 | 76 | 0 | 0.0 | 3.0 | 0.00 | 0.00 | 0.00 | 78 | 1016.2 |
| 20260906013010 | 76 | 196 | 0.0 | 0.0 | 0.00 | 0.00 | 0.00 | 77 | 1015.4 |
| 20260906012520 | 76 | 0 | 0.0 | 3.0 | 0.00 | 0.00 | 0.00 | 77 | 1016.0 |
| 20260906012021 | 76 | 0 | 1.0 | 3.0 | 0.00 | 0.00 | 0.00 | 77 | 1016.1 |
| 20260906011542 | 77 | 195 | 1.0 | 3.0 | 0.00 | 0.00 | 0.00 | 77 | 1015.9 |
| 20260906011510 | 77 | 195 | 2.0 | 0.0 | 0.00 | 0.00 | 0.00 | 76 | 1015.2 |
| 20260906011018 | 77 | 0 | 0.0 | 3.0 | 0.00 | 0.00 | 0.00 | 77 | 1015.8 |
| 20260906011010 | 78 | 143 | 0.0 | 0.0 | 0.00 | 0.00 | 0.00 | 77 | 1014.9 |
| 20260906010520 | 77 | 0 | 0.0 | 3.0 | 0.00 | 0.00 | 0.00 | 77 | 1015.8 |
| 20260906010510 | 78 | 140 | 0.0 | 0.0 | 0.00 | 0.00 | 0.00 | 77 | 1014.9 |
| 20260906010039 | 78 | 0 | 0.0 | 0.0 | 0.00 | 0.00 | 0.00 | 77 | 1015.6 |
| 20260906010010 | 78 | 88 | 0.0 | 0.0 | 0.00 | 0.00 | 0.00 | 76 | 1014.7 |
| 20260906005523 | 78 | 0 | 0.0 | 0.0 | 0.00 | 0.00 | 0.00 | 76 | 1015.5 |
| 20260906005510 | 78 | 88 | 0.0 | 0.0 | 0.00 | 0.00 | 0.00 | 76 | 1014.6 |
| 20260906005028 | 78 | 0 | 0.0 | 0.0 | 0.00 | 0.00 | 0.00 | 77 | 1015.4 |
| 20260906004543 | 78 | 0 | 0.0 | 0.0 | 0.00 | 0.00 | 0.00 | 76 | 1015.6 |
| 20260906004510 | 79 | 88 | 0.0 | 0.0 | 0.00 | 0.00 | 0.00 | 76 | 1014.7 |
| 20260906004024 | 78 | 0 | 0.0 | 0.0 | 0.00 | 0.00 | 0.00 | 76 | 1015.5 |
| 20260906004010 | 79 | 87 | 0.0 | 0.0 | 0.00 | 0.00 | 0.00 | 76 | 1014.7 |
| 20260906003527 | 79 | 0 | 0.0 | 3.0 | 0.00 | 0.00 | 0.00 | 75 | 1015.5 |
| 20260906003510 | 79 | 87 | 0.0 | 0.0 | 0.00 | 0.00 | 0.00 | 75 | 1014.7 |
| 20260906003051 | 79 | 0 | 0.0 | 3.0 | 0.00 | 0.00 | 0.00 | 75 | 1015.5 |
| 20260906003010 | 79 | 87 | 0.0 | 0.0 | 0.00 | 0.00 | 0.00 | 74 | 1014.8 |
| 20260906002520 | 79 | 87 | 0.0 | 4.0 | 0.00 | 0.00 | 0.00 | 75 | 1015.5 |
| 20260906002018 | 79 | 0 | 1.0 | 4.0 | 0.00 | 0.00 | 0.00 | 75 | 1015.4 |
| 20260906002010 | 80 | 86 | 1.0 | 0.0 | 0.00 | 0.00 | 0.00 | 74 | 1014.7 |
| 20260906001541 | 79 | 86 | 1.0 | 8.0 | 0.00 | 0.00 | 0.00 | 74 | 1015.2 |
| 20260906001510 | 80 | 81 | 3.0 | 1.0 | 0.00 | 0.00 | 0.00 | 74 | 1014.7 |
| 20260906001020 | 80 | 80 | 3.0 | 8.0 | 0.00 | 0.00 | 0.00 | 74 | 1015.3 |
| 20260906001010 | 80 | 80 | 4.0 | 1.0 | 0.00 | 0.00 | 0.00 | 74 | 1014.6 |
| 20260906000526 | 80 | 82 | 4.0 | 8.0 | 0.00 | 0.00 | 0.00 | 73 | 1015.2 |
| 20260906000511 | 80 | 78 | 5.0 | 1.0 | 0.00 | 0.00 | 0.00 | 73 | 1014.5 |
| 20260906000046 | 80 | 80 | 4.0 | 8.0 | 0.00 | 0.00 | 0.00 | 73 | 1015.2 |
| 20260906000010 | 80 | 80 | 6.0 | 1.0 | 0.00 | 0.00 | 0.00 | 72 | 1014.5 |
| 20260905235529 | 80 | 76 | 3.0 | 8.0 | 0.00 | 0.00 | 0.00 | 73 | 1015.2 |
| 20260905235024 | 80 | 78 | 4.0 | 10.0 | 0.00 | 0.00 | 0.00 | 73 | 1015.1 |
| 20260905235010 | 81 | 77 | 7.0 | 1.0 | 0.00 | 0.00 | 0.00 | 73 | 1014.5 |
| 20260905234544 | 80 | 78 | 4.0 | 10.0 | 0.00 | 0.00 | 0.00 | 73 | 1015.1 |
| 20260905234510 | 81 | 78 | 4.0 | 1.0 | 0.00 | 0.00 | 0.00 | 72 | 1014.4 |
| 20260905234024 | 81 | 75 | 6.0 | 10.0 | 0.00 | 0.00 | 0.00 | 72 | 1014.9 |
| 20260905234010 | 81 | 82 | 8.0 | 1.0 | 0.00 | 0.00 | 0.00 | 72 | 1014.2 |
| 20260905233524 | 81 | 74 | 4.0 | 13.0 | 0.00 | 0.00 | 0.00 | 72 | 1014.7 |
| 20260905233510 | 81 | 73 | 4.0 | 1.0 | 0.00 | 0.00 | 0.00 | 72 | 1014.1 |
| 20260905233043 | 81 | 79 | 7.0 | 13.0 | 0.00 | 0.00 | 0.00 | 71 | 1014.7 |
| 20260905233010 | 81 | 78 | 5.0 | 1.0 | 0.00 | 0.00 | 0.00 | 70 | 1013.9 |
| 20260905232521 | 81 | 82 | 5.0 | 10.0 | 0.00 | 0.00 | 0.00 | 70 | 1014.7 |
| 20260905232510 | 81 | 80 | 6.0 | 1.0 | 0.00 | 0.00 | 0.00 | 70 | 1014.0 |
| 20260905232022 | 81 | 75 | 4.0 | 9.0 | 0.00 | 0.00 | 0.00 | 70 | 1014.8 |
| 20260905232010 | 82 | 78 | 5.0 | 1.0 | 0.00 | 0.00 | 0.00 | 69 | 1014.2 |
| 20260905231541 | 81 | 82 | 5.0 | 9.0 | 0.00 | 0.00 | 0.00 | 69 | 1014.9 |
| 20260905231510 | 82 | 80 | 6.0 | 1.0 | 0.00 | 0.00 | 0.00 | 69 | 1014.2 |
| 20260905231025 | 81 | 86 | 6.0 | 10.0 | 0.00 | 0.00 | 0.00 | 70 | 1014.7 |
| 20260905230524 | 81 | 81 | 5.0 | 10.0 | 0.00 | 0.00 | 0.00 | 70 | 1014.7 |
| 20260905230040 | 81 | 77 | 5.0 | 10.0 | 0.00 | 0.00 | 0.00 | 69 | 1014.8 |
| 20260905230010 | 82 | 79 | 5.0 | 1.0 | 0.00 | 0.00 | 0.00 | 69 | 1014.1 |
| 20260905225526 | 82 | 87 | 4.0 | 11.0 | 0.00 | 0.00 | 0.00 | 70 | 1014.9 |
| 20260905225510 | 82 | 76 | 5.0 | 1.0 | 0.00 | 0.00 | 0.00 | 70 | 1014.2 |
| 20260905225023 | 82 | 72 | 7.0 | 11.0 | 0.00 | 0.00 | 0.00 | 70 | 1014.9 |
| 20260905225010 | 82 | 70 | 3.0 | 1.0 | 0.00 | 0.00 | 0.00 | 69 | 1014.2 |
| 20260905224542 | 82 | 64 | 8.0 | 12.0 | 0.00 | 0.00 | 0.00 | 70 | 1014.8 |
| 20260905224510 | 82 | 60 | 9.0 | 1.0 | 0.00 | 0.00 | 0.00 | 69 | 1014.1 |
| 20260905224020 | 82 | 76 | 7.0 | 14.0 | 0.00 | 0.00 | 0.00 | 69 | 1014.7 |
| 20260905224010 | 82 | 81 | 7.0 | 1.0 | 0.00 | 0.00 | 0.00 | 69 | 1014.0 |
| 20260905223519 | 82 | 72 | 7.0 | 14.0 | 0.00 | 0.00 | 0.00 | 70 | 1014.5 |
| 20260905223510 | 82 | 68 | 7.0 | 1.0 | 0.00 | 0.00 | 0.00 | 70 | 1013.9 |
| 20260905223038 | 82 | 75 | 9.0 | 14.0 | 0.00 | 0.00 | 0.00 | 69 | 1014.5 |
| 20260905223010 | 82 | 69 | 10.0 | 1.0 | 0.00 | 0.00 | 0.00 | 69 | 1013.8 |
| 20260905222528 | 82 | 68 | 7.0 | 14.0 | 0.00 | 0.00 | 0.00 | 69 | 1014.6 |
| 20260905222510 | 82 | 64 | 11.0 | 1.0 | 0.00 | 0.00 | 0.00 | 68 | 1013.9 |
| 20260905222024 | 82 | 93 | 7.0 | 14.0 | 0.00 | 0.00 | 0.00 | 69 | 1014.7 |
| 20260905222010 | 82 | 93 | 6.0 | 1.0 | 0.00 | 0.00 | 0.00 | 69 | 1014.0 |
| 20260905221546 | 82 | 74 | 10.0 | 14.0 | 0.00 | 0.00 | 0.00 | 69 | 1014.5 |
| 20260905221511 | 82 | 73 | 10.0 | 1.0 | 0.00 | 0.00 | 0.00 | 69 | 1013.9 |
| 20260905221026 | 82 | 59 | 6.0 | 14.0 | 0.00 | 0.00 | 0.00 | 70 | 1014.5 |
| 20260905221010 | 82 | 70 | 9.0 | 1.0 | 0.00 | 0.00 | 0.00 | 70 | 1013.9 |
| 20260905220524 | 82 | 77 | 7.0 | 14.0 | 0.00 | 0.00 | 0.00 | 71 | 1014.6 |
| 20260905220510 | 82 | 74 | 8.0 | 1.0 | 0.00 | 0.00 | 0.00 | 70 | 1013.9 |
| 20260905220045 | 82 | 61 | 10.0 | 14.0 | 0.00 | 0.00 | 0.00 | 71 | 1014.5 |
| 20260905220010 | 82 | 57 | 12.0 | 1.0 | 0.00 | 0.00 | 0.00 | 70 | 1013.9 |
| 20260905215519 | 82 | 70 | 9.0 | 14.0 | 0.00 | 0.00 | 0.00 | 71 | 1014.5 |
| 20260905215510 | 82 | 61 | 10.0 | 1.0 | 0.00 | 0.00 | 0.00 | 70 | 1013.9 |
| 20260905215023 | 82 | 71 | 9.0 | 17.0 | 0.00 | 0.00 | 0.00 | 71 | 1014.6 |
| 20260905215010 | 82 | 72 | 9.0 | 2.0 | 0.00 | 0.00 | 0.00 | 71 | 1014.0 |
| 20260905214541 | 82 | 59 | 6.0 | 17.0 | 0.00 | 0.00 | 0.00 | 71 | 1014.6 |
| 20260905214510 | 82 | 68 | 13.0 | 2.0 | 0.00 | 0.00 | 0.00 | 70 | 1014.0 |
| 20260905214018 | 82 | 71 | 9.0 | 14.0 | 0.00 | 0.00 | 0.00 | 71 | 1014.7 |
| 20260905213525 | 82 | 70 | 4.0 | 12.0 | 0.00 | 0.00 | 0.00 | 72 | 1014.7 |
| 20260905213510 | 82 | 69 | 8.0 | 1.0 | 0.00 | 0.00 | 0.00 | 73 | 1014.2 |
| 20260905213042 | 82 | 74 | 7.0 | 12.0 | 0.00 | 0.00 | 0.00 | 72 | 1014.9 |
| 20260905212529 | 82 | 69 | 2.0 | 7.0 | 0.00 | 0.00 | 0.00 | 73 | 1015.0 |
| 20260905212510 | 82 | 69 | 3.0 | 1.0 | 0.00 | 0.00 | 0.00 | 72 | 1014.3 |
| 20260905212024 | 82 | 57 | 2.0 | 4.0 | 0.00 | 0.00 | 0.00 | 72 | 1015.2 |
| 20260905211545 | 82 | 56 | 3.0 | 4.0 | 0.00 | 0.00 | 0.00 | 71 | 1015.3 |
| 20260905211510 | 82 | 56 | 3.0 | 0.0 | 0.00 | 0.00 | 0.00 | 71 | 1014.7 |
| 20260905211027 | 82 | 53 | 2.0 | 4.0 | 0.00 | 0.00 | 0.00 | 71 | 1015.5 |
| 20260905211010 | 82 | 53 | 2.0 | 0.0 | 0.00 | 0.00 | 0.00 | 70 | 1014.8 |
| 20260905210527 | 82 | 53 | 2.0 | 4.0 | 0.00 | 0.00 | 0.00 | 70 | 1015.6 |
| 20260905210510 | 82 | 53 | 3.0 | 0.0 | 0.00 | 0.00 | 0.00 | 69 | 1014.9 |
| 20260905210043 | 82 | 0 | 0.0 | 0.0 | 0.00 | 0.00 | 0.00 | 71 | 1015.7 |
| 20260905210010 | 82 | 52 | 0.0 | 0.0 | 0.00 | 0.00 | 0.00 | 70 | 1015.0 |
| 20260905205523 | 82 | 0 | 0.0 | 3.0 | 0.00 | 0.00 | 0.00 | 71 | 1015.8 |
| 20260905205511 | 82 | 52 | 0.0 | 0.0 | 0.00 | 0.00 | 0.00 | 70 | 1015.1 |
| 20260905205019 | 82 | 0 | 0.0 | 3.0 | 0.00 | 0.00 | 0.00 | 73 | 1015.8 |
| 20260905205010 | 82 | 52 | 0.0 | 0.0 | 0.00 | 0.00 | 0.00 | 72 | 1015.1 |
| 20260905204557 | 82 | 52 | 1.0 | 3.0 | 0.00 | 0.00 | 0.00 | 73 | 1015.8 |
| 20260905204024 | 82 | 52 | 0.0 | 3.0 | 0.00 | 0.00 | 0.00 | 71 | 1015.9 |
| 20260905204010 | 82 | 52 | 2.0 | 0.0 | 0.00 | 0.00 | 0.00 | 70 | 1015.2 |
| 20260905203518 | 82 | 0 | 0.0 | 4.0 | 0.00 | 0.00 | 0.00 | 74 | 1016.0 |
| 20260905203043 | 82 | 51 | 2.0 | 4.0 | 0.00 | 0.00 | 0.00 | 70 | 1016.2 |
| 20260905203010 | 82 | 50 | 1.0 | 0.0 | 0.00 | 0.00 | 0.00 | 70 | 1015.4 |
| 20260905202524 | 82 | 0 | 0.0 | 0.0 | 0.00 | 0.00 | 0.00 | 71 | 1016.2 |
| 20260905202024 | 82 | 0 | 0.0 | 0.0 | 0.00 | 0.00 | 0.00 | 71 | 1016.2 |
| 20260905201545 | 82 | 0 | 0.0 | 4.0 | 0.00 | 0.00 | 0.00 | 72 | 1016.2 |
| 20260905201510 | 82 | 49 | 0.0 | 0.0 | 0.00 | 0.00 | 0.00 | 72 | 1015.6 |
| 20260905201028 | 82 | 0 | 0.0 | 4.0 | 0.00 | 0.00 | 0.00 | 72 | 1016.3 |
| 20260905201010 | 82 | 49 | 0.0 | 0.0 | 0.00 | 0.00 | 0.00 | 72 | 1015.6 |
| 20260905200519 | 82 | 48 | 1.0 | 3.0 | 0.00 | 0.00 | 0.00 | 71 | 1016.4 |
| 20260905200510 | 82 | 48 | 3.0 | 0.0 | 0.00 | 0.00 | 0.00 | 71 | 1015.7 |
| 20260905200052 | 82 | 43 | 1.0 | 3.0 | 0.00 | 0.00 | 0.00 | 72 | 1016.5 |
| 20260905200010 | 82 | 43 | 3.0 | 0.0 | 0.00 | 0.00 | 0.00 | 71 | 1015.7 |
| 20260905195521 | 82 | 41 | 1.0 | 3.0 | 0.00 | 0.00 | 0.00 | 74 | 1016.5 |
| 20260905195510 | 83 | 41 | 2.0 | 0.0 | 0.00 | 0.00 | 0.00 | 72 | 1015.8 |
| 20260905195023 | 82 | 41 | 1.0 | 4.0 | 0.00 | 0.00 | 0.00 | 73 | 1016.5 |
| 20260905195010 | 83 | 40 | 2.0 | 0.0 | 0.00 | 0.00 | 0.00 | 72 | 1015.8 |
| 20260905194547 | 82 | 39 | 2.0 | 4.0 | 0.00 | 0.00 | 0.00 | 73 | 1016.6 |
| 20260905194510 | 83 | 39 | 2.0 | 0.0 | 0.00 | 0.00 | 0.00 | 73 | 1015.9 |
| 20260905194025 | 82 | 36 | 2.0 | 4.0 | 0.00 | 0.00 | 0.00 | 73 | 1016.6 |
| 20260905193519 | 82 | 36 | 2.0 | 4.0 | 0.00 | 0.00 | 0.00 | 70 | 1016.7 |
| 20260905193510 | 83 | 36 | 2.0 | 0.0 | 0.00 | 0.00 | 0.00 | 70 | 1015.9 |
| 20260905193052 | 83 | 2 | 2.0 | 5.0 | 0.00 | 0.00 | 0.00 | 71 | 1016.6 |
| 20260905193010 | 83 | 1 | 1.0 | 0.0 | 0.00 | 0.00 | 0.00 | 71 | 1015.9 |
| 20260905192526 | 83 | 152 | 1.0 | 5.0 | 0.00 | 0.00 | 0.00 | 70 | 1016.7 |
| 20260905192511 | 83 | 152 | 4.0 | 0.0 | 0.00 | 0.00 | 0.00 | 69 | 1015.9 |
| 20260905192025 | 83 | 0 | 0.0 | 5.0 | 0.00 | 0.00 | 0.00 | 70 | 1016.7 |
| 20260905192010 | 83 | 68 | 0.0 | 0.0 | 0.00 | 0.00 | 0.00 | 68 | 1016.0 |
| 20260905191544 | 83 | 0 | 0.0 | 5.0 | 0.00 | 0.00 | 0.00 | 68 | 1016.7 |
| 20260905191019 | 83 | 68 | 2.0 | 5.0 | 0.00 | 0.00 | 0.00 | 71 | 1016.7 |
| 20260905191011 | 83 | 68 | 3.0 | 0.0 | 0.00 | 0.00 | 0.00 | 70 | 1016.0 |
| 20260905190521 | 83 | 0 | 0.0 | 4.0 | 0.00 | 0.00 | 0.00 | 73 | 1016.8 |
| 20260905190510 | 83 | 71 | 0.0 | 0.0 | 0.00 | 0.00 | 0.00 | 73 | 1016.1 |
| 20260905190043 | 83 | 72 | 0.0 | 4.0 | 0.00 | 0.00 | 0.00 | 71 | 1016.7 |
| 20260905185519 | 83 | 74 | 1.0 | 4.0 | 0.00 | 0.00 | 0.00 | 71 | 1016.6 |
| 20260905185024 | 83 | 74 | 2.0 | 6.0 | 0.00 | 0.00 | 0.00 | 73 | 1016.7 |
| 20260905185010 | 84 | 74 | 2.0 | 0.0 | 0.00 | 0.00 | 0.00 | 73 | 1015.9 |
| 20260905184545 | 83 | 87 | 1.0 | 6.0 | 0.00 | 0.00 | 0.00 | 73 | 1016.6 |
| 20260905184511 | 83 | 87 | 2.0 | 0.0 | 0.00 | 0.00 | 0.00 | 73 | 1015.9 |
| 20260905184018 | 83 | 0 | 0.0 | 3.0 | 0.00 | 0.00 | 0.00 | 72 | 1016.5 |
| 20260905183525 | 82 | 65 | 1.0 | 4.0 | 0.00 | 0.00 | 0.00 | 73 | 1016.7 |
| 20260905183511 | 83 | 65 | 1.0 | 0.0 | 0.00 | 0.00 | 0.00 | 73 | 1015.9 |
| 20260905183046 | 82 | 66 | 1.0 | 4.0 | 0.00 | 0.00 | 0.00 | 75 | 1016.6 |
| 20260905183010 | 82 | 66 | 1.0 | 0.0 | 0.00 | 0.00 | 0.00 | 74 | 1016.0 |
| 20260905182524 | 81 | 68 | 2.0 | 4.0 | 0.00 | 0.00 | 0.00 | 75 | 1016.7 |
| 20260905182026 | 81 | 0 | 0.0 | 0.0 | 0.00 | 0.00 | 0.00 | 76 | 1016.8 |
| 20260905182010 | 82 | 70 | 0.0 | 0.0 | 0.00 | 0.00 | 0.00 | 75 | 1016.1 |
| 20260905181541 | 81 | 0 | 0.0 | 0.0 | 0.00 | 0.00 | 0.00 | 73 | 1016.9 |
| 20260905181511 | 82 | 70 | 0.0 | 0.0 | 0.00 | 0.00 | 0.00 | 73 | 1016.2 |
| 20260905181021 | 81 | 0 | 0.0 | 0.0 | 0.00 | 0.00 | 0.00 | 76 | 1017.0 |
| 20260905181011 | 81 | 71 | 0.0 | 0.0 | 0.00 | 0.00 | 0.00 | 76 | 1016.3 |
| 20260905180521 | 81 | 0 | 0.0 | 3.0 | 0.00 | 0.00 | 0.00 | 75 | 1017.1 |
| 20260905180510 | 81 | 71 | 0.0 | 0.0 | 0.00 | 0.00 | 0.00 | 75 | 1016.3 |
| 20260905180044 | 80 | 0 | 1.0 | 4.0 | 0.00 | 0.00 | 0.00 | 77 | 1017.1 |
| 20260905175525 | 80 | 0 | 0.0 | 4.0 | 0.00 | 0.00 | 0.00 | 77 | 1017.2 |
| 20260905175510 | 81 | 69 | 0.0 | 0.0 | 0.00 | 0.00 | 0.00 | 76 | 1016.5 |
| 20260905175019 | 80 | 68 | 2.0 | 5.0 | 0.00 | 0.00 | 0.00 | 76 | 1017.3 |
| 20260905174541 | 80 | 0 | 1.0 | 5.0 | 0.00 | 0.00 | 0.00 | 77 | 1017.4 |
| 20260905174510 | 80 | 68 | 0.0 | 0.0 | 0.00 | 0.00 | 0.00 | 76 | 1016.7 |
| 20260905174018 | 80 | 68 | 0.0 | 4.0 | 0.00 | 0.00 | 0.00 | 77 | 1017.4 |
| 20260905174010 | 80 | 68 | 0.0 | 0.0 | 0.00 | 0.00 | 0.00 | 76 | 1016.7 |
| 20260905173518 | 79 | 68 | 1.0 | 4.0 | 0.00 | 0.00 | 0.00 | 78 | 1017.6 |
| 20260905173510 | 80 | 68 | 2.0 | 0.0 | 0.00 | 0.00 | 0.00 | 77 | 1016.8 |
| 20260905173041 | 79 | 69 | 2.0 | 4.0 | 0.00 | 0.00 | 0.00 | 79 | 1017.6 |
| 20260905173011 | 79 | 68 | 3.0 | 0.0 | 0.00 | 0.00 | 0.00 | 79 | 1016.8 |
| 20260905172520 | 78 | 0 | 0.0 | 3.0 | 0.00 | 0.00 | 0.00 | 81 | 1017.6 |
| 20260905172020 | 78 | 67 | 1.0 | 3.0 | 0.00 | 0.00 | 0.00 | 81 | 1017.6 |
| 20260905172010 | 79 | 67 | 1.0 | 0.0 | 0.00 | 0.00 | 0.00 | 80 | 1016.9 |
| 20260905171538 | 78 | 0 | 0.0 | 4.0 | 0.00 | 0.00 | 0.00 | 82 | 1017.7 |
| 20260905171510 | 78 | 68 | 0.0 | 0.0 | 0.00 | 0.00 | 0.00 | 82 | 1016.9 |
| 20260905171017 | 78 | 68 | 2.0 | 4.0 | 0.00 | 0.00 | 0.00 | 81 | 1017.7 |
| 20260905171011 | 78 | 68 | 1.0 | 0.0 | 0.00 | 0.00 | 0.00 | 80 | 1016.8 |
| 20260905170518 | 78 | 68 | 1.0 | 4.0 | 0.00 | 0.00 | 0.00 | 83 | 1017.6 |
| 20260905170510 | 78 | 68 | 2.0 | 0.0 | 0.00 | 0.00 | 0.00 | 83 | 1016.9 |
| 20260905170046 | 77 | 66 | 2.0 | 4.0 | 0.00 | 0.00 | 0.00 | 83 | 1017.7 |
| 20260905170010 | 78 | 66 | 2.0 | 0.0 | 0.00 | 0.00 | 0.00 | 82 | 1017.0 |
| 20260905165520 | 77 | 0 | 0.0 | 4.0 | 0.00 | 0.00 | 0.00 | 83 | 1017.8 |
| 20260905165510 | 78 | 59 | 0.0 | 0.0 | 0.00 | 0.00 | 0.00 | 83 | 1017.1 |
| 20260905165018 | 77 | 0 | 0.0 | 4.0 | 0.00 | 0.00 | 0.00 | 84 | 1017.9 |
| 20260905165011 | 78 | 59 | 0.0 | 0.0 | 0.00 | 0.00 | 0.00 | 83 | 1017.1 |
| 20260905164542 | 77 | 59 | 2.0 | 4.0 | 0.00 | 0.00 | 0.00 | 84 | 1017.8 |
| 20260905164511 | 77 | 59 | 2.0 | 0.0 | 0.00 | 0.00 | 0.00 | 83 | 1017.1 |
| 20260905164019 | 77 | 32 | 1.0 | 3.0 | 0.00 | 0.00 | 0.00 | 85 | 1017.9 |
| 20260905164011 | 77 | 32 | 2.0 | 0.0 | 0.00 | 0.00 | 0.00 | 84 | 1017.2 |
| 20260905163521 | 76 | 0 | 1.0 | 4.0 | 0.00 | 0.00 | 0.00 | 84 | 1017.9 |
| 20260905163510 | 77 | 24 | 0.0 | 0.0 | 0.00 | 0.00 | 0.00 | 83 | 1017.2 |
| 20260905163038 | 76 | 24 | 1.0 | 4.0 | 0.00 | 0.00 | 0.00 | 87 | 1017.8 |
| 20260905162521 | 76 | 309 | 1.0 | 5.0 | 0.00 | 0.00 | 0.00 | 87 | 1017.8 |
| 20260905162510 | 76 | 309 | 2.0 | 0.0 | 0.00 | 0.00 | 0.00 | 87 | 1017.1 |
| 20260905162020 | 75 | 0 | 0.0 | 5.0 | 0.00 | 0.00 | 0.00 | 88 | 1017.9 |
| 20260905162010 | 76 | 32 | 0.0 | 0.0 | 0.00 | 0.00 | 0.00 | 87 | 1017.1 |
| 20260905161537 | 75 | 35 | 2.0 | 5.0 | 0.00 | 0.00 | 0.00 | 87 | 1017.7 |
| 20260905161511 | 75 | 35 | 3.0 | 0.0 | 0.00 | 0.00 | 0.00 | 87 | 1017.0 |
| 20260905161020 | 75 | 38 | 0.0 | 4.0 | 0.00 | 0.00 | 0.00 | 89 | 1017.5 |
| 20260905161011 | 75 | 38 | 0.0 | 0.0 | 0.00 | 0.00 | 0.00 | 89 | 1016.7 |
| 20260905160518 | 74 | 0 | 0.0 | 6.0 | 0.00 | 0.00 | 0.00 | 90 | 1017.4 |
| 20260905160043 | 74 | 77 | 2.0 | 6.0 | 0.00 | 0.00 | 0.00 | 89 | 1017.3 |
| 20260905160011 | 74 | 77 | 3.0 | 1.0 | 0.00 | 0.00 | 0.00 | 89 | 1016.6 |
| 20260905155518 | 73 | 81 | 2.0 | 5.0 | 0.00 | 0.00 | 0.00 | 90 | 1017.3 |
| 20260905155510 | 74 | 82 | 4.0 | 0.0 | 0.00 | 0.00 | 0.00 | 89 | 1016.6 |
| 20260905155019 | 73 | 66 | 2.0 | 5.0 | 0.00 | 0.00 | 0.00 | 91 | 1017.4 |
| 20260905155010 | 74 | 66 | 3.0 | 0.0 | 0.00 | 0.00 | 0.00 | 90 | 1016.6 |
| 20260905154542 | 73 | 67 | 2.0 | 6.0 | 0.00 | 0.00 | 0.00 | 90 | 1017.5 |
| 20260905154510 | 73 | 67 | 2.0 | 0.0 | 0.00 | 0.00 | 0.00 | 90 | 1016.7 |
| 20260905154020 | 72 | 66 | 2.0 | 7.0 | 0.00 | 0.00 | 0.00 | 90 | 1017.6 |
| 20260905153520 | 72 | 66 | 2.0 | 7.0 | 0.00 | 0.00 | 0.00 | 90 | 1017.6 |
| 20260905153510 | 73 | 66 | 2.0 | 1.0 | 0.00 | 0.00 | 0.00 | 90 | 1016.8 |
| 20260905153041 | 72 | 70 | 3.0 | 7.0 | 0.00 | 0.00 | 0.00 | 90 | 1017.6 |
| 20260905152520 | 72 | 68 | 3.0 | 7.0 | 0.00 | 0.00 | 0.00 | 90 | 1017.6 |
| 20260905152510 | 73 | 67 | 3.0 | 1.0 | 0.00 | 0.00 | 0.00 | 89 | 1016.9 |
| 20260905152017 | 72 | 66 | 2.0 | 5.0 | 0.00 | 0.00 | 0.00 | 90 | 1017.7 |
| 20260905152010 | 73 | 66 | 3.0 | 0.0 | 0.00 | 0.00 | 0.00 | 89 | 1016.9 |
| 20260905151542 | 72 | 69 | 3.0 | 5.0 | 0.00 | 0.00 | 0.00 | 90 | 1017.6 |
| 20260905151019 | 72 | 66 | 3.0 | 5.0 | 0.00 | 0.00 | 0.00 | 90 | 1017.5 |
| 20260905151011 | 73 | 66 | 4.0 | 0.0 | 0.00 | 0.00 | 0.00 | 89 | 1016.8 |
| 20260905150524 | 72 | 70 | 3.0 | 5.0 | 0.00 | 0.00 | 0.00 | 90 | 1017.6 |
| 20260905150039 | 72 | 71 | 3.0 | 5.0 | 0.00 | 0.00 | 0.00 | 90 | 1017.5 |
| 20260905150011 | 72 | 71 | 2.0 | 0.0 | 0.00 | 0.00 | 0.00 | 90 | 1016.7 |
| 20260905145521 | 72 | 72 | 2.0 | 5.0 | 0.00 | 0.00 | 0.00 | 90 | 1017.4 |
| 20260905145511 | 72 | 72 | 4.0 | 0.0 | 0.00 | 0.00 | 0.00 | 89 | 1016.7 |
| 20260905145020 | 72 | 72 | 2.0 | 4.0 | 0.00 | 0.00 | 0.00 | 90 | 1017.5 |
| 20260905145010 | 72 | 72 | 3.0 | 0.0 | 0.00 | 0.00 | 0.00 | 90 | 1016.8 |
| 20260905144547 | 72 | 70 | 1.0 | 3.0 | 0.00 | 0.00 | 0.00 | 91 | 1017.6 |
| 20260905144019 | 72 | 70 | 0.0 | 3.0 | 0.00 | 0.00 | 0.00 | 91 | 1017.6 |
| 20260905144011 | 72 | 70 | 2.0 | 0.0 | 0.00 | 0.00 | 0.00 | 90 | 1016.8 |
| 20260905143524 | 72 | 70 | 2.0 | 5.0 | 0.00 | 0.00 | 0.00 | 91 | 1017.5 |
| 20260905143511 | 72 | 70 | 1.0 | 0.0 | 0.00 | 0.00 | 0.00 | 90 | 1016.8 |
| 20260905143049 | 71 | 70 | 2.0 | 5.0 | 0.00 | 0.00 | 0.00 | 91 | 1017.5 |
| 20260905142524 | 71 | 0 | 0.0 | 4.0 | 0.00 | 0.00 | 0.00 | 91 | 1017.5 |
| 20260905142510 | 72 | 71 | 0.0 | 0.0 | 0.00 | 0.00 | 0.00 | 91 | 1016.8 |
| 20260905142019 | 71 | 71 | 1.0 | 4.0 | 0.00 | 0.00 | 0.00 | 92 | 1017.5 |
| 20260905142011 | 72 | 71 | 2.0 | 0.0 | 0.00 | 0.00 | 0.00 | 91 | 1016.7 |
| 20260905141544 | 71 | 67 | 1.0 | 4.0 | 0.00 | 0.00 | 0.00 | 91 | 1017.3 |
| 20260905141511 | 71 | 67 | 1.0 | 0.0 | 0.00 | 0.00 | 0.00 | 91 | 1016.7 |
| 20260905141021 | 71 | 67 | 1.0 | 4.0 | 0.00 | 0.00 | 0.00 | 91 | 1017.5 |
| 20260905141011 | 71 | 67 | 2.0 | 0.0 | 0.00 | 0.00 | 0.00 | 91 | 1016.7 |
| 20260905140521 | 71 | 0 | 0.0 | 2.0 | 0.00 | 0.00 | 0.00 | 91 | 1017.4 |
| 20260905140511 | 71 | 69 | 1.0 | 0.0 | 0.00 | 0.00 | 0.00 | 91 | 1016.7 |
| 20260905140041 | 71 | 0 | 0.0 | 2.0 | 0.00 | 0.00 | 0.00 | 91 | 1017.4 |
| 20260905140011 | 71 | 69 | 0.0 | 0.0 | 0.00 | 0.00 | 0.00 | 91 | 1016.7 |
| 20260905135521 | 71 | 0 | 0.0 | 2.0 | 0.00 | 0.00 | 0.00 | 91 | 1017.5 |
| 20260905135511 | 71 | 69 | 0.0 | 0.0 | 0.00 | 0.00 | 0.00 | 90 | 1016.7 |
| 20260905135020 | 71 | 69 | 1.0 | 3.0 | 0.00 | 0.00 | 0.00 | 91 | 1017.4 |
| 20260905134538 | 70 | 69 | 0.0 | 3.0 | 0.00 | 0.00 | 0.00 | 91 | 1017.2 |
| 20260905134511 | 71 | 69 | 2.0 | 0.0 | 0.00 | 0.00 | 0.00 | 91 | 1016.4 |
| 20260905134024 | 70 | 69 | 1.0 | 3.0 | 0.00 | 0.00 | 0.00 | 92 | 1017.1 |
| 20260905134010 | 71 | 69 | 2.0 | 0.0 | 0.00 | 0.00 | 0.00 | 91 | 1016.4 |
| 20260905133522 | 70 | 69 | 1.0 | 5.0 | 0.00 | 0.00 | 0.00 | 92 | 1016.8 |
| 20260905133511 | 71 | 69 | 2.0 | 0.0 | 0.00 | 0.00 | 0.00 | 91 | 1016.2 |
| 20260905133043 | 70 | 70 | 2.0 | 5.0 | 0.00 | 0.00 | 0.00 | 91 | 1016.8 |
| 20260905132524 | 70 | 71 | 2.0 | 7.0 | 0.00 | 0.00 | 0.00 | 91 | 1016.6 |
| 20260905132031 | 70 | 69 | 2.0 | 7.0 | 0.00 | 0.00 | 0.00 | 91 | 1016.4 |
| 20260905132011 | 71 | 69 | 4.0 | 1.0 | 0.00 | 0.00 | 0.00 | 91 | 1015.7 |
| 20260905131548 | 70 | 71 | 3.0 | 8.0 | 0.00 | 0.00 | 0.00 | 91 | 1016.4 |
| 20260905131511 | 71 | 71 | 4.0 | 1.0 | 0.00 | 0.00 | 0.00 | 91 | 1015.6 |
| 20260905131026 | 70 | 70 | 4.0 | 9.0 | 0.00 | 0.00 | 0.00 | 91 | 1016.3 |
| 20260905131011 | 70 | 67 | 2.0 | 1.0 | 0.00 | 0.00 | 0.00 | 91 | 1015.6 |
| 20260905130520 | 70 | 74 | 4.0 | 9.0 | 0.00 | 0.00 | 0.00 | 91 | 1016.1 |
| 20260905130511 | 70 | 72 | 3.0 | 1.0 | 0.00 | 0.00 | 0.00 | 91 | 1015.3 |
| 20260905130042 | 70 | 68 | 4.0 | 9.0 | 0.00 | 0.00 | 0.00 | 91 | 1016.0 |
| 20260905130011 | 70 | 67 | 4.0 | 1.0 | 0.00 | 0.00 | 0.00 | 91 | 1015.3 |
| 20260905125524 | 70 | 63 | 4.0 | 9.0 | 0.00 | 0.00 | 0.00 | 92 | 1016.1 |
| 20260905125020 | 70 | 70 | 4.0 | 9.0 | 0.00 | 0.00 | 0.00 | 91 | 1015.9 |
| 20260905125011 | 70 | 70 | 7.0 | 1.0 | 0.00 | 0.00 | 0.00 | 91 | 1015.1 |
| 20260905124541 | 70 | 66 | 3.0 | 7.0 | 0.00 | 0.00 | 0.00 | 92 | 1015.9 |
| 20260905124511 | 70 | 68 | 4.0 | 1.0 | 0.00 | 0.00 | 0.00 | 91 | 1015.2 |
| 20260905124025 | 70 | 70 | 2.0 | 8.0 | 0.00 | 0.00 | 0.00 | 92 | 1016.0 |
| 20260905124011 | 70 | 70 | 3.0 | 1.0 | 0.00 | 0.00 | 0.00 | 91 | 1015.2 |
| 20260905123523 | 70 | 75 | 3.0 | 8.0 | 0.00 | 0.00 | 0.00 | 92 | 1016.0 |
| 20260905123511 | 70 | 75 | 2.0 | 1.0 | 0.00 | 0.00 | 0.00 | 91 | 1015.3 |
| 20260905123046 | 70 | 63 | 3.0 | 7.0 | 0.00 | 0.00 | 0.00 | 92 | 1015.9 |
| 20260905123011 | 70 | 64 | 2.0 | 1.0 | 0.00 | 0.00 | 0.00 | 91 | 1015.2 |
| 20260905122519 | 70 | 65 | 1.0 | 5.0 | 0.00 | 0.00 | 0.00 | 92 | 1016.0 |
| 20260905122511 | 70 | 67 | 3.0 | 0.0 | 0.00 | 0.00 | 0.00 | 91 | 1015.2 |
| 20260905122019 | 70 | 63 | 1.0 | 5.0 | 0.00 | 0.00 | 0.00 | 92 | 1016.0 |
| 20260905122011 | 70 | 62 | 3.0 | 0.0 | 0.00 | 0.00 | 0.00 | 91 | 1015.3 |
| 20260905121542 | 70 | 65 | 2.0 | 7.0 | 0.00 | 0.00 | 0.00 | 92 | 1015.9 |
| 20260905121511 | 70 | 65 | 2.0 | 1.0 | 0.00 | 0.00 | 0.00 | 91 | 1015.2 |
| 20260905121023 | 70 | 70 | 2.0 | 8.0 | 0.00 | 0.00 | 0.00 | 92 | 1015.9 |
| 20260905121011 | 70 | 72 | 4.0 | 1.0 | 0.00 | 0.00 | 0.00 | 91 | 1015.2 |
| 20260905120519 | 70 | 70 | 4.0 | 8.0 | 0.00 | 0.00 | 0.00 | 92 | 1015.9 |
| 20260905120510 | 70 | 69 | 3.0 | 1.0 | 0.00 | 0.00 | 0.00 | 91 | 1015.2 |
| 20260905120041 | 70 | 70 | 2.0 | 7.0 | 0.00 | 0.00 | 0.00 | 92 | 1015.9 |
| 20260905120011 | 70 | 70 | 1.0 | 0.0 | 0.00 | 0.00 | 0.00 | 91 | 1015.2 |
| 20260905115523 | 69 | 66 | 2.0 | 7.0 | 0.00 | 0.00 | 0.00 | 92 | 1016.0 |
| 20260905115511 | 70 | 66 | 2.0 | 1.0 | 0.00 | 0.00 | 0.00 | 91 | 1015.2 |
| 20260905115024 | 69 | 76 | 4.0 | 7.0 | 0.00 | 0.00 | 0.00 | 92 | 1015.8 |
| 20260905115011 | 70 | 76 | 3.0 | 1.0 | 0.00 | 0.00 | 0.00 | 91 | 1015.2 |
| 20260905114545 | 69 | 80 | 2.0 | 6.0 | 0.00 | 0.00 | 0.00 | 92 | 1015.9 |
| 20260905114511 | 70 | 79 | 2.0 | 1.0 | 0.00 | 0.00 | 0.00 | 91 | 1015.1 |
| 20260905114023 | 69 | 72 | 2.0 | 5.0 | 0.00 | 0.00 | 0.00 | 92 | 1015.8 |
| 20260905114010 | 70 | 69 | 3.0 | 0.0 | 0.00 | 0.00 | 0.00 | 91 | 1015.1 |
| 20260905113526 | 69 | 72 | 1.0 | 4.0 | 0.00 | 0.00 | 0.00 | 92 | 1015.9 |
| 20260905113511 | 70 | 72 | 2.0 | 0.0 | 0.00 | 0.00 | 0.00 | 91 | 1015.1 |
| 20260905113042 | 69 | 70 | 1.0 | 4.0 | 0.00 | 0.00 | 0.00 | 92 | 1015.8 |
| 20260905112521 | 69 | 0 | 1.0 | 6.0 | 0.00 | 0.00 | 0.00 | 92 | 1015.8 |
| 20260905112511 | 70 | 70 | 0.0 | 1.0 | 0.00 | 0.00 | 0.00 | 91 | 1015.0 |
| 20260905112054 | 69 | 71 | 2.0 | 7.0 | 0.00 | 0.00 | 0.00 | 92 | 1015.7 |
| 20260905112011 | 70 | 70 | 1.0 | 1.0 | 0.00 | 0.00 | 0.00 | 91 | 1014.9 |
| 20260905111600 | 69 | 74 | 3.0 | 8.0 | 0.00 | 0.00 | 0.00 | 92 | 1015.5 |
| 20260905111511 | 70 | 76 | 3.0 | 1.0 | 0.00 | 0.00 | 0.00 | 92 | 1014.8 |
| 20260905111020 | 69 | 66 | 4.0 | 8.0 | 0.00 | 0.00 | 0.00 | 92 | 1015.4 |
| 20260905111011 | 70 | 65 | 4.0 | 1.0 | 0.00 | 0.00 | 0.00 | 91 | 1014.6 |
| 20260905110520 | 69 | 64 | 4.0 | 7.0 | 0.00 | 0.00 | 0.00 | 92 | 1015.5 |
| 20260905110511 | 70 | 66 | 5.0 | 1.0 | 0.00 | 0.00 | 0.00 | 91 | 1014.6 |
| 20260905110038 | 69 | 68 | 2.0 | 5.0 | 0.00 | 0.00 | 0.00 | 92 | 1015.6 |
| 20260905110011 | 70 | 69 | 3.0 | 0.0 | 0.00 | 0.00 | 0.00 | 91 | 1014.9 |
| 20260905105521 | 69 | 65 | 2.0 | 5.0 | 0.00 | 0.00 | 0.00 | 92 | 1015.5 |
| 20260905105511 | 70 | 65 | 5.0 | 0.0 | 0.00 | 0.00 | 0.00 | 91 | 1014.8 |
| 20260905105017 | 69 | 12 | 0.0 | 3.0 | 0.00 | 0.00 | 0.00 | 91 | 1015.5 |
| 20260905105011 | 70 | 12 | 2.0 | 0.0 | 0.00 | 0.00 | 0.00 | 91 | 1014.8 |
| 20260905104544 | 69 | 5 | 0.0 | 2.0 | 0.00 | 0.00 | 0.00 | 91 | 1015.5 |
| 20260905104511 | 70 | 5 | 1.0 | 0.0 | 0.00 | 0.00 | 0.00 | 91 | 1014.7 |
| 20260905104023 | 69 | 0 | 0.0 | 2.0 | 0.00 | 0.00 | 0.00 | 91 | 1015.6 |
| 20260905104011 | 70 | 5 | 0.0 | 0.0 | 0.00 | 0.00 | 0.00 | 91 | 1014.8 |
| 20260905103524 | 69 | 0 | 0.0 | 2.0 | 0.00 | 0.00 | 0.00 | 91 | 1015.7 |
| 20260905103511 | 70 | 5 | 0.0 | 0.0 | 0.00 | 0.00 | 0.00 | 91 | 1014.8 |
| 20260905103043 | 69 | 5 | 0.0 | 2.0 | 0.00 | 0.00 | 0.00 | 91 | 1015.7 |
| 20260905103011 | 70 | 5 | 2.0 | 0.0 | 0.00 | 0.00 | 0.00 | 91 | 1014.9 |
| 20260905102519 | 69 | 0 | 0.0 | 4.0 | 0.00 | 0.00 | 0.00 | 91 | 1015.3 |
| 20260905102511 | 70 | 5 | 0.0 | 0.0 | 0.00 | 0.00 | 0.00 | 91 | 1014.5 |
| 20260905102023 | 69 | 4 | 0.0 | 5.0 | 0.00 | 0.00 | 0.00 | 91 | 1015.1 |
| 20260905102011 | 70 | 4 | 2.0 | 0.0 | 0.00 | 0.00 | 0.00 | 91 | 1014.2 |
| 20260905101545 | 69 | 0 | 1.0 | 5.0 | 0.00 | 0.00 | 0.00 | 91 | 1015.0 |
| 20260905101511 | 70 | 18 | 0.0 | 0.0 | 0.00 | 0.00 | 0.00 | 91 | 1014.1 |
| 20260905101019 | 69 | 58 | 1.0 | 3.0 | 0.00 | 0.00 | 0.00 | 91 | 1014.9 |
| 20260905101011 | 70 | 58 | 2.0 | 0.0 | 0.00 | 0.00 | 0.00 | 91 | 1014.0 |
| 20260905100520 | 69 | 0 | 0.0 | 3.0 | 0.00 | 0.00 | 0.00 | 91 | 1015.0 |
| 20260905100511 | 70 | 64 | 0.0 | 0.0 | 0.00 | 0.00 | 0.00 | 91 | 1014.1 |
| 20260905100057 | 69 | 63 | 1.0 | 5.0 | 0.00 | 0.00 | 0.00 | 91 | 1014.8 |
| 20260905095519 | 69 | 56 | 1.0 | 7.0 | 0.00 | 0.00 | 0.00 | 91 | 1014.7 |
| 20260905095020 | 69 | 51 | 3.0 | 7.0 | 0.00 | 0.00 | 0.00 | 92 | 1014.7 |
| 20260905095011 | 69 | 51 | 2.0 | 1.0 | 0.00 | 0.00 | 0.00 | 91 | 1013.9 |
| 20260905094539 | 69 | 68 | 2.0 | 7.0 | 0.00 | 0.00 | 0.00 | 91 | 1014.7 |
| 20260905094511 | 69 | 68 | 3.0 | 1.0 | 0.00 | 0.00 | 0.00 | 91 | 1013.8 |
| 20260905094021 | 69 | 83 | 2.0 | 7.0 | 0.00 | 0.00 | 0.00 | 91 | 1014.8 |
| 20260905094011 | 69 | 83 | 4.0 | 1.0 | 0.00 | 0.00 | 0.00 | 91 | 1013.9 |